NFC98 LSGG-EDDK

Flight info

Callsign NFC98
Flight time 1h 8m
Altitude 30000
Route SOSAL1R SOSAL N871 KORED DCT BERSU DCT DITON/N0400F220 DCT ROMIR/N0406F230 DCT LOKTA/N0400F220 N851 LBU Z3 VATAK T840 GULKO GULKO1B
Aircraft B77L/H-SDE1E2E3FGHIJ2J3J4J5M1RWXY/LB1D1

Departure

Time 2026-04-25 13:38
Airport Geneva International Airport (LSGG)

Arrival

Time 2026-04-25 14:46
Airport Cologne Bonn Airport (EDDK)
Time Latitude Longitude Altitude Speed Heading
2026-04-25 13:02 46.23747 6.11298 1385 ft 0 kts 135°
2026-04-25 13:17 46.23748 6.11298 1385 ft 0 kts 135°
2026-04-25 13:20 46.23748 6.11297 1385 ft 0 kts 135°
2026-04-25 13:31 46.23774 6.11268 1393 ft 4 kts 140°
2026-04-25 13:31 46.23791 6.11245 1375 ft 4 kts 121°
2026-04-25 13:31 46.23796 6.11213 1378 ft 4 kts 62°
2026-04-25 13:31 46.23779 6.11186 1379 ft 3 kts 39°
2026-04-25 13:32 46.23769 6.11173 1380 ft 2 kts 46°
2026-04-25 13:34 46.23825 6.11256 1379 ft 14 kts 46°
2026-04-25 13:34 46.23900 6.11366 1376 ft 17 kts 45°
2026-04-25 13:34 46.23988 6.11496 1372 ft 20 kts 45°
2026-04-25 13:34 46.24091 6.11647 1370 ft 22 kts 45°
2026-04-25 13:35 46.24205 6.11815 1367 ft 24 kts 46°
2026-04-25 13:35 46.24322 6.11987 1368 ft 24 kts 45°
2026-04-25 13:35 46.24439 6.12157 1373 ft 24 kts 45°
2026-04-25 13:35 46.24554 6.12328 1373 ft 24 kts 46°
2026-04-25 13:36 46.24672 6.12503 1369 ft 25 kts 45°
2026-04-25 13:36 46.24806 6.12669 1367 ft 25 kts 22°
2026-04-25 13:36 46.24954 6.12733 1373 ft 16 kts
2026-04-25 13:36 46.24979 6.12622 1373 ft 15 kts 233°
2026-04-25 13:37 46.24860 6.12443 1372 ft 46 kts 226°
2026-04-25 13:37 46.24467 6.11865 1374 ft 116 kts 225°
2026-04-25 13:37 46.23751 6.10816 1385 ft 174 kts 225°
2026-04-25 13:37 46.22886 6.09512 1826 ft 179 kts 226°
2026-04-25 13:38 46.22008 6.08219 2413 ft 183 kts 228°
2026-04-25 13:38 46.21113 6.06879 3069 ft 185 kts 228°
2026-04-25 13:38 46.20208 6.05563 3765 ft 187 kts 229°
2026-04-25 13:38 46.19286 6.04199 4429 ft 191 kts 228°
2026-04-25 13:39 46.18357 6.02851 5114 ft 188 kts 229°
2026-04-25 13:39 46.17762 6.01938 5517 ft 187 kts 229°
2026-04-25 13:39 46.16534 6.00147 6156 ft 196 kts 225°
2026-04-25 13:39 46.15505 5.98689 6371 ft 219 kts 227°
2026-04-25 13:40 46.14370 5.97025 6565 ft 248 kts 227°
2026-04-25 13:40 46.13107 5.95160 6912 ft 269 kts 227°
2026-04-25 13:40 46.12261 5.93827 7275 ft 273 kts 235°
2026-04-25 13:40 46.11588 5.91281 7811 ft 278 kts 270°
2026-04-25 13:41 46.11992 5.88596 8588 ft 278 kts 298°
2026-04-25 13:41 46.13208 5.86441 9394 ft 278 kts 323°
2026-04-25 13:41 46.14935 5.85202 10113 ft 280 kts 348°
2026-04-25 13:41 46.16908 5.85157 10606 ft 295 kts 11°
2026-04-25 13:42 46.18867 5.86371 10824 ft 322 kts 34°
2026-04-25 13:42 46.20494 5.88778 11023 ft 351 kts 55°
2026-04-25 13:42 46.21698 5.91926 11725 ft 362 kts 62°
2026-04-25 13:42 46.22801 5.95173 12647 ft 367 kts 61°
2026-04-25 13:43 46.23990 5.98450 13639 ft 370 kts 59°
2026-04-25 13:43 46.25256 6.01723 14575 ft 374 kts 58°
2026-04-25 13:43 46.26567 6.05004 15413 ft 379 kts 56°
2026-04-25 13:43 46.28224 6.07969 16162 ft 382 kts 40°
2026-04-25 13:44 46.30264 6.10477 16990 ft 386 kts 38°
2026-04-25 13:44 46.32299 6.13063 17807 ft 392 kts 39°
2026-04-25 13:44 46.34319 6.15760 18600 ft 397 kts 40°
2026-04-25 13:44 46.36348 6.18514 19314 ft 402 kts 40°
2026-04-25 13:45 46.38394 6.21221 20012 ft 405 kts 39°
2026-04-25 13:45 46.40503 6.23956 20739 ft 410 kts 39°
2026-04-25 13:45 46.42630 6.26738 21483 ft 413 kts 39°
2026-04-25 13:45 46.44765 6.29584 22193 ft 418 kts 39°
2026-04-25 13:46 46.46906 6.32460 22875 ft 422 kts 39°
2026-04-25 13:46 46.49074 6.35377 23529 ft 427 kts 39°
2026-04-25 13:46 46.51265 6.38321 24128 ft 431 kts 39°
2026-04-25 13:46 46.53478 6.41295 24685 ft 433 kts 40°
2026-04-25 13:47 46.55412 6.44694 25009 ft 446 kts 57°
2026-04-25 13:47 46.56553 6.48949 25493 ft 459 kts 73°
2026-04-25 13:47 46.56870 6.53543 26107 ft 466 kts 88°
2026-04-25 13:47 46.56715 6.58279 26616 ft 472 kts 90°
2026-04-25 13:48 46.56522 6.63062 27191 ft 475 kts 90°
2026-04-25 13:48 46.56349 6.67858 27905 ft 474 kts 90°
2026-04-25 13:48 46.56208 6.72637 28672 ft 472 kts 89°
2026-04-25 13:48 46.56088 6.77403 29420 ft 472 kts 89°
2026-04-25 13:49 46.55973 6.82167 30063 ft 472 kts 89°
2026-04-25 13:49 46.56201 6.86921 30073 ft 473 kts 73°
2026-04-25 13:49 46.57341 6.91289 30121 ft 465 kts 56°
2026-04-25 13:49 46.59263 6.94985 30115 ft 453 kts 44°
2026-04-25 13:50 46.61338 6.98455 30115 ft 456 kts 46°
2026-04-25 13:50 46.65391 7.05629 30102 ft 459 kts 47°
2026-04-25 13:51 46.69402 7.12907 30107 ft 460 kts 47°
2026-04-25 13:51 46.73407 7.20183 30108 ft 460 kts 47°
2026-04-25 13:52 46.77407 7.27446 30092 ft 458 kts 47°
2026-04-25 13:52 46.81353 7.34638 30093 ft 455 kts 47°
2026-04-25 13:53 46.85295 7.41837 30073 ft 452 kts 47°
2026-04-25 13:53 46.89216 7.49021 30075 ft 450 kts 47°
2026-04-25 13:54 46.93106 7.56171 30103 ft 448 kts 47°
2026-04-25 13:54 46.96976 7.63243 30076 ft 447 kts 48°
2026-04-25 13:55 47.00809 7.70382 30082 ft 445 kts 48°
2026-04-25 13:55 47.04637 7.77506 30082 ft 443 kts 48°
2026-04-25 13:56 47.08461 7.84621 30081 ft 443 kts 48°
2026-04-25 13:56 47.12252 7.91683 30097 ft 443 kts 48°
2026-04-25 13:57 47.15775 7.99134 30094 ft 446 kts 54°
2026-04-25 13:57 47.19039 8.06888 30087 ft 446 kts 54°
2026-04-25 13:58 47.22315 8.14640 30087 ft 445 kts 54°
2026-04-25 13:58 47.25595 8.22377 30091 ft 446 kts 54°
2026-04-25 13:59 47.28878 8.30130 30113 ft 446 kts 54°
2026-04-25 13:59 47.32373 8.37549 30109 ft 441 kts 48°
2026-04-25 14:00 47.35580 8.43462 30090 ft 439 kts 47°
2026-04-25 14:00 47.40020 8.51601 30100 ft 436 kts 47°
2026-04-25 14:01 47.43789 8.58623 30106 ft 435 kts 47°
2026-04-25 14:01 47.47518 8.65627 30105 ft 436 kts 48°
2026-04-25 14:02 47.51272 8.72702 30106 ft 438 kts 47°
2026-04-25 14:02 47.55038 8.79815 30109 ft 439 kts 47°
2026-04-25 14:03 47.58767 8.86939 30076 ft 440 kts 49°
2026-04-25 14:03 47.62533 8.94059 30075 ft 437 kts 47°
2026-04-25 14:04 47.66285 9.01161 30094 ft 437 kts 48°
2026-04-25 14:04 47.70197 9.07933 30092 ft 429 kts 34°
2026-04-25 14:04 47.72727 9.10229 30092 ft 425 kts 21°
2026-04-25 14:05 47.75518 9.11632 30085 ft 422 kts
2026-04-25 14:05 47.81336 9.12543 30080 ft 423 kts
2026-04-25 14:06 47.87240 9.13411 30099 ft 427 kts
2026-04-25 14:06 47.93142 9.14356 30091 ft 429 kts
2026-04-25 14:07 47.99079 9.15339 30087 ft 428 kts
2026-04-25 14:07 48.04983 9.16323 30081 ft 425 kts
2026-04-25 14:08 48.10815 9.17306 30086 ft 423 kts
2026-04-25 14:08 48.16663 9.18280 30085 ft 422 kts
2026-04-25 14:09 48.22508 9.19249 30096 ft 421 kts
2026-04-25 14:09 48.28348 9.20223 30095 ft 423 kts
2026-04-25 14:10 48.33185 9.21032 30091 ft 424 kts
2026-04-25 14:10 48.40061 9.22187 30099 ft 426 kts
2026-04-25 14:11 48.45955 9.23179 30093 ft 427 kts
2026-04-25 14:11 48.51875 9.24200 30085 ft 428 kts
2026-04-25 14:12 48.57759 9.25216 30074 ft 428 kts
2026-04-25 14:12 48.63663 9.26362 30066 ft 427 kts
2026-04-25 14:13 48.69519 9.27975 30076 ft 427 kts
2026-04-25 14:13 48.75356 9.29611 30076 ft 426 kts
2026-04-25 14:14 48.81184 9.31218 30082 ft 425 kts
2026-04-25 14:14 48.86971 9.32781 30076 ft 421 kts
2026-04-25 14:14 48.89878 9.32670 30088 ft 417 kts 347°
2026-04-25 14:15 48.91723 9.31876 30094 ft 416 kts 338°
2026-04-25 14:15 48.97282 9.26102 30097 ft 417 kts 318°
2026-04-25 14:16 49.01543 9.20020 30093 ft 421 kts 318°
2026-04-25 14:16 49.05869 9.13940 30104 ft 424 kts 319°
2026-04-25 14:17 49.10243 9.07872 30094 ft 425 kts 319°
2026-04-25 14:17 49.14598 9.01828 30099 ft 424 kts 319°
2026-04-25 14:18 49.19366 8.96771 30108 ft 418 kts 340°
2026-04-25 14:18 49.25105 8.95509 30095 ft 420 kts
2026-04-25 14:19 49.30900 8.96463 30110 ft 422 kts
2026-04-25 14:19 49.36770 8.97370 30107 ft 424 kts
2026-04-25 14:20 49.42663 8.98209 30105 ft 425 kts
2026-04-25 14:20 49.48533 8.99031 30108 ft 426 kts
2026-04-25 14:21 49.54458 8.99857 30106 ft 426 kts
2026-04-25 14:21 49.60336 9.00046 30086 ft 420 kts 347°
2026-04-25 14:22 49.65728 8.96937 30103 ft 415 kts 327°
2026-04-25 14:22 49.68040 8.94404 30113 ft 399 kts 323°
2026-04-25 14:22 49.70238 8.91904 30094 ft 385 kts 324°
2026-04-25 14:23 49.74546 8.87136 29607 ft 383 kts 324°
2026-04-25 14:23 49.76723 8.84758 29207 ft 380 kts 324°
2026-04-25 14:23 49.78873 8.82402 28760 ft 376 kts 324°
2026-04-25 14:23 49.81005 8.80058 28311 ft 373 kts 324°
2026-04-25 14:24 49.83107 8.77742 27869 ft 370 kts 324°
2026-04-25 14:24 49.85204 8.75430 27431 ft 367 kts 324°
2026-04-25 14:24 49.87278 8.73148 27015 ft 365 kts 324°
2026-04-25 14:24 49.89353 8.70873 26583 ft 363 kts 324°
2026-04-25 14:25 49.91383 8.68648 26169 ft 361 kts 324°
2026-04-25 14:25 49.93429 8.66403 25750 ft 359 kts 325°
2026-04-25 14:25 49.95462 8.64172 25337 ft 357 kts 325°
2026-04-25 14:25 49.96149 8.63418 25195 ft 357 kts 325°
2026-04-25 14:26 49.99499 8.59733 24519 ft 354 kts 325°
2026-04-25 14:26 50.01507 8.57520 24107 ft 353 kts 325°
2026-04-25 14:26 50.03517 8.55324 23702 ft 352 kts 327°
2026-04-25 14:26 50.05644 8.53433 23222 ft 352 kts 333°
2026-04-25 14:27 50.07886 8.51897 22781 ft 350 kts 339°
2026-04-25 14:27 50.10173 8.50648 22366 ft 347 kts 340°
2026-04-25 14:27 50.11690 8.49844 22107 ft 346 kts 340°
2026-04-25 14:27 50.14700 8.48258 21565 ft 342 kts 340°
2026-04-25 14:28 50.16941 8.47065 21176 ft 340 kts 340°
2026-04-25 14:28 50.18417 8.46274 20914 ft 338 kts 340°
2026-04-25 14:28 50.20638 8.45079 20519 ft 336 kts 340°
2026-04-25 14:28 50.22842 8.43890 20133 ft 334 kts 339°
2026-04-25 14:29 50.25038 8.42702 19748 ft 332 kts 339°
2026-04-25 14:29 50.27222 8.41517 19355 ft 331 kts 339°
2026-04-25 14:29 50.29336 8.40127 18971 ft 329 kts 332°
2026-04-25 14:29 50.31318 8.38360 18573 ft 326 kts 327°
2026-04-25 14:30 50.33224 8.36443 18141 ft 325 kts 326°
2026-04-25 14:30 50.37010 8.32628 17325 ft 320 kts 326°
2026-04-25 14:30 50.38858 8.30779 16941 ft 318 kts 326°
2026-04-25 14:31 50.40712 8.28925 16569 ft 315 kts 326°
2026-04-25 14:31 50.42550 8.27087 16194 ft 312 kts 326°
2026-04-25 14:31 50.44372 8.25264 15823 ft 309 kts 326°
2026-04-25 14:31 50.46182 8.23449 15449 ft 306 kts 326°
2026-04-25 14:32 50.47974 8.21651 15088 ft 304 kts 326°
2026-04-25 14:32 50.49750 8.19868 14726 ft 301 kts 326°
2026-04-25 14:32 50.51488 8.18123 14391 ft 299 kts 326°
2026-04-25 14:32 50.53234 8.16368 14025 ft 297 kts 326°
2026-04-25 14:33 50.54966 8.14625 13636 ft 294 kts 326°
2026-04-25 14:33 50.56690 8.12891 13255 ft 291 kts 326°
2026-04-25 14:33 50.58392 8.11174 12902 ft 288 kts 326°
2026-04-25 14:33 50.60050 8.09500 12570 ft 285 kts 326°
2026-04-25 14:34 50.61708 8.07823 12214 ft 282 kts 326°
2026-04-25 14:34 50.63349 8.06160 11886 ft 279 kts 326°
2026-04-25 14:34 50.64975 8.04511 11546 ft 276 kts 326°
2026-04-25 14:34 50.66581 8.02881 11235 ft 274 kts 326°
2026-04-25 14:35 50.68186 8.01253 10909 ft 276 kts 326°
2026-04-25 14:35 50.69824 7.99587 10583 ft 284 kts 326°
2026-04-25 14:35 50.71485 7.97892 10458 ft 283 kts 326°
2026-04-25 14:35 50.73103 7.96235 10284 ft 275 kts 323°
2026-04-25 14:36 50.74362 7.94115 10148 ft 261 kts 298°
2026-04-25 14:36 50.74953 7.91445 9873 ft 258 kts 282°
2026-04-25 14:36 50.75040 7.88603 9498 ft 262 kts 267°
2026-04-25 14:36 50.74797 7.85726 9158 ft 263 kts 263°
2026-04-25 14:37 50.74503 7.82888 8822 ft 260 kts 263°
2026-04-25 14:37 50.74221 7.80077 8516 ft 257 kts 264°
2026-04-25 14:37 50.73958 7.77289 8229 ft 257 kts 264°
2026-04-25 14:37 50.73702 7.74513 7929 ft 259 kts 264°
2026-04-25 14:38 50.73448 7.71717 7623 ft 255 kts 264°
2026-04-25 14:38 50.73198 7.68968 7332 ft 252 kts 264°
2026-04-25 14:38 50.72958 7.66224 7048 ft 252 kts 265°
2026-04-25 14:38 50.72720 7.63468 6765 ft 254 kts 264°
2026-04-25 14:39 50.72457 7.60722 6464 ft 252 kts 264°
2026-04-25 14:39 50.72200 7.58013 6160 ft 248 kts 264°
2026-04-25 14:39 50.71952 7.55308 5873 ft 249 kts 264°
2026-04-25 14:39 50.71702 7.52594 5592 ft 250 kts 264°
2026-04-25 14:40 50.71452 7.49896 5287 ft 246 kts 264°
2026-04-25 14:40 50.71205 7.47253 4995 ft 240 kts 264°
2026-04-25 14:40 50.70969 7.44707 4717 ft 235 kts 264°
2026-04-25 14:40 50.70732 7.42182 4447 ft 230 kts 264°
2026-04-25 14:41 50.70529 7.39713 4164 ft 221 kts 273°
2026-04-25 14:41 50.70935 7.37494 3872 ft 208 kts 309°
2026-04-25 14:41 50.71985 7.36001 3792 ft 201 kts 321°
2026-04-25 14:41 50.73041 7.34568 3622 ft 198 kts 318°
2026-04-25 14:42 50.74035 7.33143 3400 ft 193 kts 317°
2026-04-25 14:42 50.74696 7.32186 3201 ft 189 kts 317°
2026-04-25 14:42 50.75977 7.30334 2886 ft 185 kts 317°
2026-04-25 14:42 50.76912 7.28994 2654 ft 183 kts 317°
2026-04-25 14:43 50.77870 7.27617 2397 ft 188 kts 317°
2026-04-25 14:43 50.78825 7.26231 2140 ft 181 kts 316°
2026-04-25 14:43 50.79714 7.24946 1902 ft 166 kts 316°
2026-04-25 14:43 50.80524 7.23778 1656 ft 147 kts 317°
2026-04-25 14:44 50.81248 7.22730 1496 ft 139 kts 316°
2026-04-25 14:44 50.81957 7.21711 1333 ft 139 kts 317°
2026-04-25 14:44 50.82694 7.20702 1056 ft 140 kts 316°
2026-04-25 14:44 50.83400 7.19652 873 ft 140 kts 313°
2026-04-25 14:45 50.84109 7.18600 696 ft 139 kts 316°
2026-04-25 14:45 50.84819 7.17576 524 ft 140 kts 316°
2026-04-25 14:45 50.85548 7.16518 363 ft 145 kts 319°
2026-04-25 14:45 50.86290 7.15448 299 ft 140 kts 319°
2026-04-25 14:46 50.86908 7.14558 265 ft 98 kts 317°
2026-04-25 14:46 50.87232 7.14079 250 ft 28 kts 307°
2026-04-25 14:46 50.87307 7.13811 245 ft 20 kts 282°
2026-04-25 14:46 50.87324 7.13659 241 ft 12 kts 279°
2026-04-25 14:47 50.87330 7.13603 240 ft 5 kts 279°
2026-04-25 14:47 50.87334 7.13560 239 ft 7 kts 279°
2026-04-25 14:47 50.87364 7.13447 237 ft 9 kts 307°
2026-04-25 14:47 50.87410 7.13373 237 ft 9 kts 317°
2026-04-25 14:48 50.87459 7.13303 237 ft 9 kts 317°
2026-04-25 14:48 50.87508 7.13232 237 ft 9 kts 317°
2026-04-25 14:48 50.87558 7.13161 237 ft 10 kts 318°
2026-04-25 14:48 50.87613 7.13081 237 ft 11 kts 317°
2026-04-25 14:49 50.87675 7.12991 237 ft 13 kts 317°
2026-04-25 14:49 50.87743 7.12891 237 ft 13 kts 317°
2026-04-25 14:49 50.87790 7.12772 237 ft 13 kts 268°
2026-04-25 14:49 50.87768 7.12629 237 ft 13 kts 256°
2026-04-25 14:50 50.87718 7.12521 237 ft 13 kts 201°
2026-04-25 14:50 50.87633 7.12482 237 ft 13 kts 197°
2026-04-25 14:50 50.87554 7.12442 236 ft 8 kts 202°
2026-04-25 14:50 50.87541 7.12371 236 ft 6 kts 294°
2026-04-25 14:51 50.87544 7.12327 237 ft 3 kts 237°
2026-04-25 14:51 50.87521 7.12303 236 ft 4 kts 212°
2026-04-25 14:51 50.87501 7.12285 236 ft 1 kts 210°